Regional Weather Roundup
Issued by NWS

Home | Current Version | Previous Version | Graphics & Text | Print | Product List | Glossary On
Versions: 1 2 3 4 5 6 7 8 9 10 11 12 13 14 15 16 17 18 19 20 21 22 23 24 25 26 27 28 29 30 31 32 33 34 35 36 37 38 39 40 41 42 43 44 45 46 47 48 49 50
000
ASUS44 KMEG 260910
RWRTN
TENNESSEE HOURLY STATE WEATHER ROUNDUP
NATIONAL WEATHER SERVICE MEMPHIS TN
400 AM CDT SUN MAR 26 2017

TNZ002-004-019-021-049-052-054-088>092-261000-
WEST TENNESSEE

CITY           SKY/WX    TMP DP  RH WIND       PRES   REMARKS
MEMPHIS INTL   CLOUDY    60  58  92 S9        29.91F
NWS MEMPHIS      N/A     59 N/A N/A MISG        N/A
JACKSON        CLOUDY    60  57  89 S6        29.92F
DYERSBURG      MOCLDY    56  55  97 S6        29.91F
SOMERVILLE     CLOUDY    59  57  94 S6        29.91S
BOLIVAR        CLOUDY    59  57  94 VRB7      29.91F
PARIS          CLOUDY    55  55 100 SE7       29.91F
HUNTINGDON     CLOUDY    59  57  94 S6        29.91F
SAVANNAH       CLOUDY    59  57  94 S8        29.93F
$$

TNZ008-025-027-028-033-062-065-066-261000-
NORTH MIDDLE TENNESSEE

CITY           SKY/WX    TMP DP  RH WIND       PRES   REMARKS
NASHVILLE      LGT RAIN  57  56  96 S7        29.96F
PORTLAND       MOCLDY    57  55  94 S6        29.96R
CLARKSVILLE    CLOUDY    58  53  84 W3        29.94R
SMYRNA         CLOUDY    57  56  96 S6        29.98F
COOKEVILLE     CLOUDY    57  55  94 S5        29.98F
GALLATIN       MOCLDY    57  57 100 CALM      29.99F
CROSSVILLE     CLOUDY    56  54  93 S10       30.03S
$$

TNZ061-075-076-078-094-096-097-261000-
SOUTH MIDDLE TENNESSEE

CITY           SKY/WX    TMP DP  RH WIND       PRES   REMARKS
FAYETTEVILLE   CLOUDY    57  57 100 S13       29.99S
TULLAHOMA      MOCLDY    55  55 100 SE7       29.99F
WINCHESTER     CLOUDY    57  54  88 S8        30.00S
MCMINNVILLE    MOCLDY    57  57 100 S3        29.99F
COLUMBIA       CLOUDY   N/A N/A N/A S8        29.95R
SHELBYVILLE    MOCLDY   N/A N/A N/A MISG      29.99S
$$

TNZ017-018-042-046-047-261000-
NORTHEAST TENNESSEE

CITY           SKY/WX    TMP DP  RH WIND       PRES   REMARKS
TRI CITIES     CLOUDY    61  48  62 SE7       30.06F
ELIZABETHTON     N/A     59  48  67 SE5       30.08S
$$

TNZ012-013-036-069-073-074-261000-
CENTRAL EAST TENNESSEE

CITY           SKY/WX    TMP DP  RH WIND       PRES   REMARKS
KNOXVILLE      RAIN      59  56  89 S14       30.04S FOG
OAK RIDGE      LGT RAIN  58  56  93 CALM      30.06S FOG
DOWNTOWN KNOXV CLOUDY    59  57  94 W7        30.04S FOG
GATLINBURG     CLOUDY    66  48  52 S13       30.02S
MORRISTOWN     CLOUDY    61  48  63 CALM      30.03R
JACKSBORO      CLOUDY    55  54  94 CALM      30.07R FOG
$$

TNZ083-085-099-261000-
SOUTHEAST TENNESSEE

CITY           SKY/WX    TMP DP  RH WIND       PRES   REMARKS
CHATTANOOGA    CLOUDY    60  60 100 S6        30.04S
$$

SKY/WX REPORTED AS FAIR MEANS FEW OR NO CLOUDS BELOW
12 THOUSAND FEET.





USA.gov is the U.S. government's official web portal to all federal, state and local government web resources and services.